AJ5AG Weather Reports


time (UTC)temp
C
wind
direction
speed
KPH
gust
KPH
rain 1hr
cm
rain 24hr
cm
rain mn
cm
humidity
%
barometer
mb
20260506084847 24 84 0.0 0.0 0.00 0.00 0.00 90 1011.0
20260506084344 24 84 0.0 0.0 0.00 0.00 0.00 89 1011.2
20260506083840 24 117 0.0 0.0 0.00 0.00 0.00 89 1011.0
20260506083338 24 117 0.0 0.0 0.00 0.00 0.00 89 1010.8
20260506082835 24 112 0.0 1.6 0.00 0.00 0.00 89 1011.0
20260506082331 24 105 0.0 1.6 0.00 0.00 0.00 89 1011.0
20260506081828 24 88 1.6 4.8 0.00 0.00 0.00 90 1011.0
20260506081326 24 100 0.0 0.0 0.00 0.00 0.00 89 1010.9
20260506080823 24 101 0.0 1.6 0.00 0.00 0.00 90 1011.1
20260506080319 24 99 0.0 3.2 0.00 0.00 0.00 89 1011.1
20260506073304 24 101 0.0 1.6 0.00 0.00 0.00 89 1011.0
20260506072800 24 90 0.0 1.6 0.00 0.00 0.00 89 1011.0
20260506072258 24 114 0.0 3.2 0.00 0.00 0.00 89 1011.1
20260506071755 24 115 0.0 1.6 0.00 0.00 0.00 88 1011.2
20260506071253 24 109 1.6 3.2 0.00 0.00 0.00 88 1011.2
20260506070750 24 120 0.0 1.6 0.00 0.00 0.00 88 1011.3
20260506070247 25 106 0.0 1.6 0.00 0.00 0.00 88 1011.6
20260506062224 25 83 0.0 1.6 0.00 0.00 0.00 87 1011.9
20260506061720 25 116 0.0 0.0 0.00 0.00 0.00 87 1012.0
20260506061217 25 111 0.0 0.0 0.00 0.00 0.00 87 1011.8
20260506060716 25 127 0.0 1.6 0.00 0.00 0.00 87 1012.0
20260506060213 25 74 0.0 1.6 0.00 0.00 0.00 87 1011.8
20260506051144 25 71 0.0 0.0 0.00 0.00 0.00 87 1011.9
20260506050643 25 88 0.0 1.6 0.00 0.00 0.00 87 1011.9
20260506050140 24 98 0.0 0.0 0.00 0.00 0.00 87 1011.8
20260506045133 24 101 0.0 0.0 0.00 0.00 0.00 87 1011.8
20260506044631 24 101 0.0 0.0 0.00 0.00 0.00 87 1011.9
20260506044128 24 101 0.0 0.0 0.00 0.00 0.00 87 1011.8
20260506043624 24 101 0.0 0.0 0.00 0.00 0.00 87 1011.6
20260506043123 24 101 0.0 0.0 0.00 0.00 0.00 87 1011.7
20260506042621 24 89 0.0 0.0 0.00 0.00 0.00 86 1011.4
20260506042119 24 89 0.0 3.2 0.00 0.00 0.00 86 1011.4
20260506041618 24 82 0.0 0.0 0.00 0.00 0.00 86 1011.6
20260506041114 24 101 0.0 3.2 0.00 0.00 0.00 86 1011.4
20260506040612 24 57 1.6 1.6 0.00 0.00 0.00 86 1011.4
20260506040108 25 96 0.0 0.0 0.00 0.00 0.00 85 1011.0
20260506035605 25 106 3.2 4.8 0.00 0.00 0.00 85 1011.0
20260506035102 24 108 0.0 3.2 0.00 0.00 0.00 85 1011.0
20260506034559 25 103 0.0 0.0 0.00 0.00 0.00 85 1011.0
20260506034056 25 87 0.0 3.2 0.00 0.00 0.00 85 1011.0
20260506033553 25 107 0.0 1.6 0.00 0.00 0.00 85 1011.0
20260506033050 25 121 1.6 3.2 0.00 0.00 0.00 85 1010.9
20260506032548 25 97 1.6 3.2 0.00 0.00 0.00 85 1010.9
20260506032044 25 94 0.0 0.0 0.00 0.00 0.00 85 1010.9
20260506031542 25 95 1.6 3.2 0.00 0.00 0.00 85 1011.0
20260506031038 25 99 0.0 1.6 0.00 0.00 0.00 85 1010.6
20260506030537 25 100 0.0 0.0 0.00 0.00 0.00 85 1010.6
20260506030033 25 101 0.0 0.0 0.00 0.00 0.00 84 1010.7
20260506025531 25 101 0.0 0.0 0.00 0.00 0.00 84 1010.6
20260506025026 25 97 0.0 1.6 0.00 0.00 0.00 84 1010.5
20260506024523 25 107 0.0 1.6 0.00 0.00 0.00 83 1010.7
20260506024020 25 110 0.0 0.0 0.00 0.00 0.00 82 1010.6
20260506023516 25 112 0.0 1.6 0.00 0.00 0.00 82 1010.4
20260506023014 25 96 0.0 1.6 0.00 0.00 0.00 82 1010.4
20260506022511 25 120 0.0 1.6 0.00 0.00 0.00 82 1010.3
20260506022009 25 113 1.6 1.6 0.00 0.00 0.00 82 1010.6
20260506021506 25 92 0.0 0.0 0.00 0.00 0.00 82 1010.5
20260506021003 25 92 0.0 0.0 0.00 0.00 0.00 81 1010.3
20260506020500 25 92 0.0 0.0 0.00 0.00 0.00 81 1010.2
20260506015957 25 92 0.0 0.0 0.00 0.00 0.00 80 1010.2
20260506015455 26 96 0.0 0.0 0.00 0.00 0.00 80 1010.0
20260506014952 26 118 0.0 0.0 0.00 0.00 0.00 80 1009.7
20260506014448 26 86 0.0 3.2 0.00 0.00 0.00 80 1009.8
20260506013945 26 110 1.6 1.6 0.00 0.00 0.00 80 1009.7
20260506013443 26 97 0.0 0.0 0.00 0.00 0.00 81 1009.7
20260506012939 26 97 0.0 0.0 0.00 0.00 0.00 80 1009.6
20260506012436 26 97 0.0 1.6 0.00 0.00 0.00 80 1009.7
20260506011933 26 96 0.0 0.0 0.00 0.00 0.00 80 1009.5
20260506011430 26 100 0.0 0.0 0.00 0.00 0.00 80 1009.5
20260506010927 26 100 0.0 0.0 0.00 0.00 0.00 79 1009.2
20260506010426 26 100 0.0 0.0 0.00 0.00 0.00 79 1009.4
20260506005921 26 109 0.0 1.6 0.00 0.00 0.00 79 1009.3
20260506005419 26 98 0.0 0.0 0.00 0.00 0.00 78 1009.2
20260506004914 26 98 0.0 0.0 0.00 0.00 0.00 78 1009.1
20260506004413 26 96 0.0 1.6 0.00 0.00 0.00 78 1009.1
20260506003908 26 92 0.0 0.0 0.00 0.00 0.00 78 1009.2
20260506003404 26 84 0.0 1.6 0.00 0.00 0.00 78 1008.9
20260506002902 27 68 0.0 1.6 0.00 0.00 0.00 77 1009.1
20260506002357 27 118 0.0 1.6 0.00 0.00 0.00 77 1009.1
20260506001853 27 117 0.0 0.0 0.00 0.00 0.00 77 1008.8
20260506001350 27 104 0.0 1.6 0.00 0.00 0.00 77 1009.1
20260506000847 27 108 0.0 1.6 0.00 0.00 0.00 76 1009.0
20260506000346 27 109 0.0 1.6 0.00 0.00 0.00 76 1009.0
20260505235842 27 106 0.0 0.0 0.00 0.00 0.00 76 1009.2
20260505235339 27 104 0.0 0.0 0.00 0.00 0.00 75 1009.1
20260505234836 27 127 0.0 1.6 0.00 0.00 0.00 75 1009.1
20260505234334 27 105 1.6 3.2 0.00 0.00 0.00 75 1009.0
20260505233830 27 116 0.0 1.6 0.00 0.00 0.00 75 1009.1
20260505233328 27 112 0.0 0.0 0.00 0.00 0.00 74 1008.9
20260505232825 27 116 1.6 1.6 0.00 0.00 0.00 73 1008.8
20260505232323 28 111 1.6 3.2 0.00 0.00 0.00 73 1009.0
20260505231820 28 107 1.6 3.2 0.00 0.00 0.00 73 1009.2
20260505231318 28 98 0.0 1.6 0.00 0.00 0.00 73 1009.0
20260505230816 28 104 0.0 3.2 0.00 0.00 0.00 73 1009.2
20260505230312 28 100 0.0 3.2 0.00 0.00 0.00 73 1009.1
20260505225809 28 103 3.2 6.4 0.00 0.00 0.00 73 1009.2
20260505225306 28 88 0.0 1.6 0.00 0.00 0.00 74 1009.3
20260505224801 28 80 0.0 1.6 0.00 0.00 0.00 73 1009.2
20260505224259 28 108 0.0 0.0 0.00 0.00 0.00 73 1009.1
20260505223756 28 131 1.6 1.6 0.00 0.00 0.00 73 1009.0
20260505223253 28 132 3.2 6.4 0.00 0.00 0.00 73 1009.1
20260505222749 28 156 0.0 0.0 0.00 0.00 0.00 74 1009.0
20260505222245 28 29 0.0 1.6 0.00 0.00 0.00 74 1009.2
20260505221742 28 96 1.6 3.2 0.00 0.00 0.00 73 1009.0
20260505221239 28 99 0.0 3.2 0.00 0.00 0.00 73 1009.2
20260505220736 28 107 1.6 6.4 0.00 0.00 0.00 72 1009.0
20260505220233 28 128 1.6 3.2 0.00 0.00 0.00 71 1009.0
20260505215731 28 159 1.6 3.2 0.00 0.00 0.00 72 1009.3
20260505215229 28 92 0.0 0.0 0.00 0.00 0.00 72 1009.3
20260505214726 28 160 0.0 0.0 0.00 0.00 0.00 72 1009.2
20260505214224 28 68 0.0 0.0 0.00 0.00 0.00 73 1009.2
20260505213721 28 102 0.0 12.9 0.00 0.00 0.00 72 1009.4
20260505213218 28 52 0.0 3.2 0.00 0.00 0.00 71 1009.5
20260505212714 28 128 3.2 11.3 0.00 0.00 0.00 70 1009.4
20260505212212 29 44 1.6 1.6 0.00 0.00 0.00 69 1009.4
20260505211708 29 145 3.2 4.8 0.00 0.00 0.00 70 1009.5
20260505211206 29 125 1.6 1.6 0.00 0.00 0.00 70 1009.4
20260505210702 29 158 3.2 6.4 0.00 0.00 0.00 70 1009.5
20260505210159 29 100 0.0 1.6 0.00 0.00 0.00 70 1009.6
20260505205656 29 188 1.6 3.2 0.00 0.00 0.00 70 1009.5
20260505205154 29 97 0.0 1.6 0.00 0.00 0.00 70 1009.7
20260505204650 29 102 0.0 1.6 0.00 0.00 0.00 70 1010.0
20260505204149 29 88 1.6 3.2 0.00 0.00 0.00 69 1009.9
20260505203646 29 63 1.6 6.4 0.00 0.00 0.00 69 1010.1
20260505203142 29 174 3.2 4.8 0.00 0.00 0.00 71 1010.3
20260505202638 29 97 1.6 3.2 0.00 0.00 0.00 70 1010.2
20260505202134 29 91 0.0 3.2 0.00 0.00 0.00 69 1010.1
20260505201631 30 208 1.6 1.6 0.00 0.00 0.00 68 1010.3
20260505201129 30 58 1.6 4.8 0.00 0.00 0.00 68 1010.2
20260505200627 30 85 0.0 1.6 0.00 0.00 0.00 70 1010.4
20260505200123 28 137 1.6 1.6 0.00 0.00 0.00 72 1010.4
20260505195619 28 127 1.6 3.2 0.00 0.00 0.00 72 1010.7
20260505195117 28 80 0.0 4.8 0.00 0.00 0.00 73 1010.8
20260505194614 28 19 1.6 1.6 0.00 0.00 0.00 72 1010.9
20260505194110 28 106 1.6 9.7 0.00 0.00 0.00 73 1010.9
20260505193607 28 139 3.2 6.4 0.00 0.00 0.00 72 1011.0
20260505193104 28 109 1.6 4.8 0.00 0.00 0.00 72 1010.9
20260505192603 28 25 1.6 3.2 0.00 0.00 0.00 73 1011.0
20260505192100 28 94 0.0 1.6 0.00 0.00 0.00 74 1011.1
20260505191558 28 152 3.2 4.8 0.00 0.00 0.00 73 1011.0
20260505191056 28 105 0.0 6.4 0.00 0.00 0.00 74 1010.8
20260505190556 28 93 4.8 4.8 0.00 0.00 0.00 73 1010.8
20260505190052 28 113 0.0 3.2 0.00 0.00 0.00 72 1010.8
20260505185549 29 85 1.6 3.2 0.00 0.00 0.00 71 1010.8
20260505185045 28 72 0.0 9.7 0.00 0.00 0.00 72 1011.0
20260505184542 28 126 1.6 1.6 0.00 0.00 0.00 73 1011.0
20260505184039 28 184 1.6 4.8 0.00 0.00 0.00 73 1011.1
20260505183536 28 139 0.0 3.2 0.00 0.00 0.00 74 1010.9
20260505183033 27 138 1.6 9.7 0.00 0.00 0.00 75 1011.0
20260505182529 27 188 0.0 1.6 0.00 0.00 0.00 78 1011.2
20260505182026 27 99 0.0 1.6 0.00 0.00 0.00 78 1011.3
20260505181523 27 96 0.0 1.6 0.00 0.00 0.00 76 1011.3
20260505181020 27 89 0.0 1.6 0.00 0.00 0.00 76 1011.5
20260505180516 27 77 3.2 6.4 0.00 0.00 0.00 75 1011.3
20260505180014 26 109 1.6 4.8 0.00 0.00 0.00 79 1011.5
20260505175508 26 108 1.6 1.6 0.00 0.00 0.00 81 1011.5
20260505175006 26 101 0.0 1.6 0.00 0.00 0.00 79 1011.5
20260505174503 27 103 0.0 1.6 0.00 0.00 0.00 78 1011.4
20260505173959 27 23 1.6 3.2 0.00 0.00 0.00 77 1011.7
20260505173455 27 74 0.0 1.6 0.00 0.00 0.00 78 1011.7
20260505172952 26 105 0.0 1.6 0.00 0.00 0.00 79 1011.7
20260505172451 26 356 3.2 4.8 0.00 0.00 0.00 80 1011.8
20260505171950 26 89 1.6 9.7 0.00 0.00 0.00 80 1011.7
20260505171447 26 125 0.0 0.0 0.00 0.00 0.00 80 1011.7
20260505170944 26 120 0.0 1.6 0.00 0.00 0.00 80 1011.8
20260505170440 26 146 1.6 3.2 0.00 0.00 0.00 80 1011.6
20260505165936 26 94 0.0 1.6 0.00 0.00 0.00 80 1011.7
20260505165432 26 49 1.6 1.6 0.00 0.00 0.00 80 1011.7
20260505164927 26 109 3.2 4.8 0.00 0.00 0.00 80 1011.9
20260505164424 26 59 3.2 6.4 0.00 0.00 0.00 80 1011.9
20260505163922 26 118 0.0 1.6 0.00 0.00 0.00 81 1011.8
20260505163421 25 44 1.6 3.2 0.00 0.00 0.00 82 1011.8
20260505162920 25 188 3.2 3.2 0.00 0.00 0.00 82 1012.0
20260505162415 25 95 0.0 1.6 0.00 0.00 0.00 82 1012.0
20260505161912 25 115 1.6 1.6 0.00 0.00 0.00 82 1012.1
20260505161409 25 121 0.0 3.2 0.00 0.00 0.00 83 1012.0
20260505160906 25 96 0.0 3.2 0.00 0.00 0.00 83 1012.1
20260505160404 25 105 0.0 1.6 0.00 0.00 0.00 85 1011.9
20260505153343 24 101 0.0 1.6 0.00 0.00 0.00 85 1011.8
20260505152840 24 91 0.0 1.6 0.00 0.00 0.00 85 1011.9
20260505152338 24 99 0.0 1.6 0.00 0.00 0.00 85 1011.8
20260505151837 24 99 0.0 0.0 0.00 0.00 0.00 85 1011.9
20260505151334 24 84 0.0 0.0 0.00 0.00 0.00 85 1011.8
20260505150832 24 98 0.0 0.0 0.00 0.00 0.00 85 1011.6
20260505150329 24 114 0.0 0.0 0.00 0.00 0.00 85 1011.6
20260505140258 22 87 1.6 6.4 0.00 0.00 0.00 88 1011.4
20260505130222 22 89 0.0 1.6 0.00 0.00 0.00 90 1011.6
20260505124712 22 84 0.0 1.6 0.00 0.00 0.00 90 1011.5
20260505124209 22 113 0.0 1.6 0.00 0.00 0.00 90 1011.3
20260505123705 22 103 0.0 1.6 0.00 0.00 0.00 90 1011.2
20260505123202 22 104 0.0 0.0 0.00 0.00 0.00 90 1011.2
20260505122658 22 94 0.0 0.0 0.00 0.00 0.00 90 1011.1
20260505122156 22 103 0.0 0.0 0.00 0.00 0.00 90 1010.9
20260505121652 22 156 0.0 0.0 0.00 0.00 0.00 89 1010.7
20260505121149 22 85 1.6 3.2 0.00 0.00 0.00 89 1010.8
20260505120645 22 70 1.6 4.8 0.00 0.00 0.00 90 1010.9
20260505120141 22 104 0.0 1.6 0.00 0.00 0.00 89 1010.8
20260505115635 22 107 0.0 1.6 0.00 0.00 0.00 89 1010.9
20260505115133 22 102 0.0 1.6 0.00 0.00 0.00 89 1010.8
20260505114630 21 109 0.0 1.6 0.00 0.00 0.00 89 1011.0
20260505114126 22 97 0.0 1.6 0.00 0.00 0.00 89 1011.0
20260505113622 22 227 0.0 1.6 0.00 0.00 0.00 89 1010.8
20260505113119 22 113 0.0 3.2 0.00 0.00 0.00 89 1010.8
20260505112615 22 121 1.6 3.2 0.00 0.00 0.00 89 1011.0
20260505112114 22 113 0.0 3.2 0.00 0.00 0.00 89 1010.8
20260505111614 22 96 0.0 1.6 0.00 0.00 0.00 89 1010.8
20260505111110 21 123 0.0 3.2 0.00 0.00 0.00 89 1010.7
20260505110606 21 129 0.0 1.6 0.00 0.00 0.00 89 1010.7
20260505102039 21 106 0.0 0.0 0.00 0.00 0.00 89 1010.7
20260505101537 21 97 0.0 1.6 0.00 0.00 0.00 89 1010.6
20260505101033 21 114 0.0 3.2 0.00 0.00 0.00 89 1010.9
20260505100530 21 43 1.6 3.2 0.00 0.00 0.00 89 1010.9
20260505100027 21 101 0.0 0.0 0.00 0.00 0.00 89 1011.1
20260505095523 21 111 0.0 1.6 0.00 0.00 0.00 89 1011.0
20260505095019 21 102 0.0 0.0 0.00 0.00 0.00 89 1010.9
20260505094516 21 98 0.0 0.0 0.00 0.00 0.00 89 1010.8
20260505094013 21 142 0.0 3.2 0.00 0.00 0.00 89 1010.9
20260505093509 21 73 1.6 1.6 0.00 0.00 0.00 89 1011.1
20260505093007 21 90 0.0 1.6 0.00 0.00 0.00 88 1011.1
20260505092504 21 102 0.0 0.0 0.00 0.00 0.00 88 1011.2
20260505092001 21 88 0.0 0.0 0.00 0.00 0.00 88 1011.1
20260505091459 21 102 0.0 0.0 0.00 0.00 0.00 88 1011.2
20260505090957 21 111 0.0 0.0 0.00 0.00 0.00 88 1011.4
20260505090455 21 91 0.0 0.0 0.00 0.00 0.00 88 1011.3
20260505085952 21 87 0.0 0.0 0.00 0.00 0.00 88 1011.2
20260505085449 21 85 0.0 0.0 0.00 0.00 0.00 88 1011.2